This is the latest recevied weather packets stored in our database for station/object IU1DOF-3. If no packets are shown the sender has not sent any weather packets the latest 10 day(s).
| Time | Temp. | Humidity | Pressure | Rain* | Wind** | Luminosity | Snow |
|---|---|---|---|---|---|---|---|
| 1777843758 | 11.67° C | 82% | 1016.4 hPa | 0 mm | - | - | - |
| 1777843135 | 11.67° C | 82% | 1016.3 hPa | 0 mm | - | - | - |
| 1777842521 | 11.67° C | 81% | 1016.5 hPa | 0 mm | - | - | - |
| 1777841902 | 11.67° C | 79% | 1016.2 hPa | 0 mm | - | - | - |
| 1777841278 | 11.67° C | 79% | 1016.4 hPa | 0 mm | - | - | - |
| 1777840660 | 11.67° C | 81% | 1016.4 hPa | 0 mm | - | - | - |
| 1777840045 | 12.22° C | 80% | 1016.4 hPa | 0 mm | - | - | - |
| 1777839421 | 12.22° C | 80% | 1016.2 hPa | 0 mm | - | - | - |
| 1777838798 | 12.22° C | 79% | 1016 hPa | 0 mm | - | - | - |
| 1777838174 | 12.22° C | 77% | 1016 hPa | 0 mm | - | - | - |
| 1777837549 | 12.78° C | 77% | 1015.8 hPa | 0 mm | - | - | - |
| 1777836941 | 12.78° C | 77% | 1015.9 hPa | 0 mm | - | - | - |
| 1777836317 | 12.78° C | 77% | 1016.1 hPa | 0 mm | - | - | - |
| 1777835694 | 12.78° C | 75% | 1015.7 hPa | 0 mm | - | - | - |
| 1777835080 | 12.78° C | 75% | 1015.9 hPa | 0 mm | - | - | - |
| 1777834462 | 13.33° C | 76% | 1015.6 hPa | 0 mm | - | - | - |
| 1777833839 | 13.33° C | 75% | 1015.5 hPa | 0 mm | - | - | - |
| 1777833220 | 13.89° C | 74% | 1015.5 hPa | 0 mm | - | - | - |
| 1777832606 | 14.44° C | 70% | 1015.6 hPa | 0 mm | - | - | - |
| 1777831982 | 14.44° C | 67% | 1015.6 hPa | 0 mm | - | - | - |
| 1777831358 | 15° C | 68% | 1015.4 hPa | 0 mm | - | - | - |
| 1777830734 | 15.56° C | 65% | 1015.4 hPa | 0 mm | - | - | - |
| 1777830110 | 15.56° C | 63% | 1015.3 hPa | 0 mm | - | - | - |
| 1777829500 | 16.11° C | 63% | 1015.5 hPa | 0 mm | - | - | - |
| 1777828878 | 16.11° C | 63% | 1015.7 hPa | 0 mm | - | - | - |
* Rain latest hour (hover to see other rain measurements)
** Current wind speed in m/s (hover to see current wind gust speed)